timestamp,surface_pressure_avg,surface_temp_avg,battery_voltage,lat,long
2024-01-26 00:09:00+00:00,354.56800000000015,1.1,11.53,47.84626,-54.09684
2024-01-26 00:19:00+00:00,349.1946,1.06,11.53,47.84626,-54.09684
2024-01-26 00:29:00+00:00,340.1146,1.0,11.53,47.84626,-54.09684
2024-01-26 00:39:00+00:00,340.598,1.04,11.53,47.84626,-54.09684
2024-01-26 00:49:00+00:00,341.4196,1.04,11.53,47.84626,-54.09684
2024-01-26 00:59:00+00:00,334.213,1.0,11.53,47.84626,-54.09684
2024-01-26 01:09:00+00:00,328.0547,1.0,11.53,47.84626,-54.09684
2024-01-26 01:19:00+00:00,328.973,1.0,11.53,47.84626,-54.09684
2024-01-26 01:29:00+00:00,325.3963,1.0,11.53,47.84626,-54.09684
2024-01-26 01:39:00+00:00,314.0397,1.0,11.53,47.84626,-54.09684
2024-01-26 01:49:00+00:00,307.2697,0.95,11.53,47.84626,-54.09684
2024-01-26 01:59:00+00:00,306.7163,0.96,11.53,47.84626,-54.09684
2024-01-26 02:09:00+00:00,302.4913,0.92,11.53,47.84626,-54.09684
2024-01-26 02:19:00+00:00,297.3797,0.9,11.53,47.84626,-54.09684
2024-01-26 02:29:00+00:00,293.6481,0.89,11.53,47.84626,-54.09684
2024-01-26 02:39:00+00:00,291.4431,0.7,11.53,47.84626,-54.09684
2024-01-26 02:49:00+00:00,281.6348,0.58,11.53,47.84626,-54.09684
2024-01-26 02:59:00+00:00,271.6648,0.5,11.53,47.84626,-54.09684
2024-01-26 03:09:00+00:00,266.6214,0.5,11.53,47.84626,-54.09684
2024-01-26 03:19:00+00:00,260.4964,0.5,11.53,47.84626,-54.09684
2024-01-26 03:29:00+00:00,248.7747,0.49,11.53,47.84626,-54.09684
2024-01-26 03:39:00+00:00,241.5848,0.45,11.53,47.84626,-54.09684
2024-01-26 03:49:00+00:00,241.2681,0.42,11.53,47.84626,-54.09684
2024-01-26 03:59:00+00:00,234.4314,0.4,11.53,47.84626,-54.09684
2024-01-26 04:09:00+00:00,224.1031,0.4,11.53,47.84626,-54.09684
2024-01-26 04:19:00+00:00,223.1314,0.3,11.53,47.84626,-54.09684
2024-01-26 04:29:00+00:00,224.6081,0.3,11.53,47.84626,-54.09684
2024-01-26 04:39:00+00:00,219.8931,0.3,11.53,47.84626,-54.09684
2024-01-26 04:49:00+00:00,218.7864,0.3,11.53,47.84626,-54.09684
2024-01-26 04:59:00+00:00,225.3997,0.29,11.53,47.84626,-54.09684
2024-01-26 05:09:00+00:00,227.6314,0.29,11.53,47.84626,-54.09684
2024-01-26 05:19:00+00:00,223.0564,0.2,11.53,47.84626,-54.09684
2024-01-26 05:29:00+00:00,222.0365,0.19,11.53,47.84626,-54.09684
2024-01-26 05:39:00+00:00,223.2048,0.1,11.53,47.84626,-54.09684
2024-01-26 05:49:00+00:00,224.0981,0.1,11.53,47.84626,-54.09684
2024-01-26 05:59:00+00:00,223.9781,0.09,11.53,47.84626,-54.09684
2024-01-26 06:09:00+00:00,225.2148,0.1,11.53,47.84626,-54.09684
2024-01-26 06:19:00+00:00,227.1898,0.1,11.53,47.84626,-54.09684
2024-01-26 06:29:00+00:00,228.6031,0.2,11.53,47.84626,-54.09684
2024-01-26 06:39:00+00:00,230.5397,0.2,11.53,47.84626,-54.09684
2024-01-26 06:49:00+00:00,232.2748,0.2,11.53,47.84626,-54.09684
2024-01-26 06:59:00+00:00,234.1431,0.2,11.53,47.84626,-54.09684
2024-01-26 07:09:00+00:00,239.3648,0.2,11.53,47.84626,-54.09684
2024-01-26 07:19:00+00:00,245.7914,0.2,11.53,47.84626,-54.09684
2024-01-26 07:29:00+00:00,248.2081,0.19,11.53,47.84626,-54.09684
2024-01-26 07:39:00+00:00,251.9181,0.1,11.53,47.84626,-54.09684
2024-01-26 07:49:00+00:00,261.4047,0.1,11.53,47.84626,-54.09684
2024-01-26 07:59:00+00:00,267.0298,0.1,11.53,47.84626,-54.09684
2024-01-26 08:09:00+00:00,267.613,0.08,11.53,47.84626,-54.09684
2024-01-26 08:19:00+00:00,271.0615,0.1,11.46,47.84626,-54.09684
2024-01-26 08:29:00+00:00,277.7497,0.0,11.46,47.84626,-54.09684
2024-01-26 08:39:00+00:00,280.638,0.04,11.46,47.84626,-54.09684
2024-01-26 08:49:00+00:00,284.0814,0.06,11.46,47.84626,-54.09684
2024-01-26 08:59:00+00:00,289.4147,0.0,11.46,47.84626,-54.09684
2024-01-26 09:09:00+00:00,295.558,-0.1,11.46,47.84626,-54.09684
2024-01-26 12:19:00+00:00,393.8712,-0.1,11.93,47.84626,-54.09684
2024-01-26 12:29:00+00:00,391.9946,-0.1,11.93,47.84626,-54.09684
2024-01-26 12:39:00+00:00,395.8912,-0.1,11.93,47.84626,-54.09684
2024-01-26 12:49:00+00:00,402.0212,-0.15,11.93,47.84626,-54.09684
2024-01-26 12:59:00+00:00,403.5962,-0.12,11.93,47.84626,-54.09684
2024-01-26 13:09:00+00:00,399.8212,0.13,11.93,47.84626,-54.09684
2024-01-26 13:19:00+00:00,393.4045,0.3,12.17,47.84626,-54.09684
2024-01-26 13:29:00+00:00,391.1763,0.33,12.17,47.84626,-54.09684
2024-01-26 13:39:00+00:00,386.5213,0.41,12.17,47.84626,-54.09684
2024-01-26 13:49:00+00:00,378.6313,0.5,12.17,47.84626,-54.09684
2024-01-26 13:59:00+00:00,378.9262,0.53,12.17,47.84626,-54.09684
2024-01-26 14:09:00+00:00,372.5763,0.6,12.17,47.84626,-54.09684
2024-01-26 14:19:00+00:00,361.1546,0.77,12.25,47.84626,-54.09684
2024-01-26 14:29:00+00:00,355.6429,0.86,12.25,47.84626,-54.09684
2024-01-26 14:39:00+00:00,349.5297,0.87,12.25,47.84626,-54.09684
2024-01-26 14:49:00+00:00,344.6247,0.85,12.25,47.84626,-54.09684
2024-01-26 14:59:00+00:00,337.11300000000006,0.8,12.25,47.84626,-54.09684
2024-01-26 15:09:00+00:00,332.3879,0.78,12.25,47.84626,-54.09684
2024-01-26 15:19:00+00:00,322.8614,0.7,12.25,47.84626,-54.09684
2024-01-26 15:29:00+00:00,316.3347,0.79,12.25,47.84626,-54.09684
2024-01-26 15:39:00+00:00,306.543,0.6,12.25,47.84626,-54.09684
2024-01-26 15:49:00+00:00,293.8947,0.46,12.25,47.84626,-54.09684
2024-01-26 15:59:00+00:00,287.548,0.49,12.25,47.84626,-54.09684
2024-01-26 16:09:00+00:00,279.4447,0.55,12.25,47.84626,-54.09684
2024-01-26 16:19:00+00:00,268.3297,0.61,12.25,47.84626,-54.09684
2024-01-26 16:29:00+00:00,257.1898,0.7,12.25,47.84626,-54.09684
2024-01-26 16:39:00+00:00,253.9381,0.7,12.25,47.84626,-54.09684
2024-01-26 16:49:00+00:00,249.6597,0.69,12.25,47.84626,-54.09684
2024-01-26 16:59:00+00:00,238.7797,0.6,12.25,47.84626,-54.09684
2024-01-26 17:09:00+00:00,224.7798,0.48,12.25,47.84626,-54.09684
2024-01-26 17:19:00+00:00,219.4632,0.4,12.17,47.84626,-54.09684
2024-01-26 17:29:00+00:00,215.2498,0.4,12.17,47.84626,-54.09684
2024-01-26 17:39:00+00:00,205.9865,0.3,12.17,47.84626,-54.09684
2024-01-26 17:49:00+00:00,202.2581,0.3,12.17,47.84626,-54.09684
2024-01-26 17:59:00+00:00,205.6881,0.34,12.17,47.84626,-54.09684
2024-01-26 18:09:00+00:00,200.7348,0.35,12.17,47.84626,-54.09684
2024-01-26 18:19:00+00:00,188.8981,0.31,12.09,47.84626,-54.09684
2024-01-26 18:29:00+00:00,188.0831,0.35,12.09,47.84626,-54.09684
2024-01-26 18:39:00+00:00,199.3264,0.39,12.09,47.84626,-54.09684
2024-01-26 18:49:00+00:00,203.0048,0.4,12.09,47.84626,-54.09684
2024-01-26 18:59:00+00:00,204.1348,0.4,12.09,47.84626,-54.09684
2024-01-26 19:09:00+00:00,207.9531,0.43,12.09,47.84626,-54.09684
2024-01-26 19:19:01+00:00,207.9314,0.5,11.86,47.84626,-54.09684
2024-01-26 19:29:01+00:00,204.5698,0.5,11.86,47.84626,-54.09684
2024-01-26 19:39:01+00:00,203.6732,0.55,11.86,47.84626,-54.09684
2024-01-26 19:49:01+00:00,202.5748,0.59,11.86,47.84626,-54.09684
2024-01-26 19:59:01+00:00,206.2331,0.6,11.86,47.84626,-54.09684
2024-01-26 20:09:01+00:00,212.1981,0.74,11.86,47.84626,-54.09684
2024-01-26 20:19:01+00:00,215.1863,0.9,11.7,47.84626,-54.09684
2024-01-26 20:29:01+00:00,213.1181,1.07,11.7,47.84626,-54.09684
2024-01-26 20:39:01+00:00,214.5264,1.1,11.7,47.84626,-54.09684
2024-01-26 20:49:01+00:00,220.2381,1.2,11.7,47.84626,-54.09684
2024-01-26 20:59:01+00:00,230.4964,1.2,11.7,47.84626,-54.09684
2024-01-26 21:09:01+00:00,237.3431,1.2,11.7,47.84626,-54.09684
2024-01-26 21:19:00+00:00,238.2281,1.27,11.61,47.84626,-54.09684
2024-01-26 21:29:00+00:00,242.4598,1.3,11.61,47.84626,-54.09684
2024-01-26 21:39:00+00:00,247.2698,1.3,11.61,47.84626,-54.09684
2024-01-26 21:49:00+00:00,250.6347,1.3,11.61,47.84626,-54.09684
2024-01-26 21:59:00+00:00,253.5347,1.3,11.61,47.84626,-54.09684
2024-01-26 22:09:00+00:00,261.2514,1.3,11.61,47.84626,-54.09684
2024-01-26 22:19:00+00:00,268.2347,1.3,11.61,47.84626,-54.09684
2024-01-26 22:29:00+00:00,273.1464,1.3,11.61,47.84626,-54.09684
2024-01-26 22:39:00+00:00,279.9164,1.3,11.61,47.84626,-54.09684
2024-01-26 22:49:00+00:00,288.7113,1.28,11.61,47.84626,-54.09684
2024-01-26 22:59:00+00:00,295.2364,1.29,11.61,47.84626,-54.09684
2024-01-26 23:09:00+00:00,301.3963,1.3,11.61,47.84626,-54.09684
2024-01-26 23:19:00+00:00,307.238,1.3,11.61,47.84626,-54.09684
2024-01-26 23:29:00+00:00,310.2646,1.3,11.61,47.84626,-54.09684
2024-01-26 23:39:00+00:00,311.5497,1.3,11.61,47.84626,-54.09684
2024-01-26 23:49:00+00:00,318.3963,1.3,11.61,47.84626,-54.09684
2024-01-26 23:59:00+00:00,317.7546,1.29,11.61,47.84626,-54.09684
